This is the latest recevied weather packets stored in our database for station/object AG7BI. If no packets are shown the sender has not sent any weather packets the latest 1 day(s).
| Time | Temp. | Humidity | Pressure | Rain* | Wind** | Luminosity | Snow |
|---|---|---|---|---|---|---|---|
| 1778045152 | 10° C | 90% | 1016.4 hPa | 0 mm | 0.45 m/s, 174° | - | - |
| 1778044852 | 10.56° C | 89% | 1016.3 hPa | 0 mm | 0.45 m/s, 123° | - | - |
| 1778044552 | 10.56° C | 90% | 1016.3 hPa | 0 mm | 0.45 m/s, 145° | - | - |
| 1778044252 | 10.56° C | 89% | 1016.1 hPa | 0 mm | 0.45 m/s, 139° | - | - |
| 1778043952 | 10.56° C | 89% | 1016.1 hPa | 0 mm | 0.45 m/s, 121° | - | - |
| 1778043652 | 10.56° C | 88% | 1015.9 hPa | 0 mm | 0.45 m/s, 134° | - | - |
| 1778043352 | 10.56° C | 88% | 1016 hPa | 0 mm | 0.45 m/s, 132° | - | - |
| 1778043052 | 10.56° C | 88% | 1015.7 hPa | 0 mm | 0.45 m/s, 137° | - | - |
| 1778042752 | 11.11° C | 88% | 1015.8 hPa | 0 mm | 0.45 m/s, 136° | - | - |
| 1778042452 | 11.11° C | 88% | 1016.1 hPa | 0 mm | 0.45 m/s, 139° | - | - |
| 1778042152 | 11.11° C | 87% | 1015.8 hPa | 0 mm | 0.89 m/s, 158° | - | - |
| 1778041852 | 11.11° C | 86% | 1016.1 hPa | 0 mm | 0.45 m/s, 158° | - | - |
| 1778041552 | 11.11° C | 85% | 1015.9 hPa | 0 mm | 0.45 m/s, 80° | - | - |
| 1778041252 | 11.11° C | 85% | 1015.7 hPa | 0 mm | 0.45 m/s, 148° | - | - |
| 1778040952 | 11.67° C | 85% | 1015.7 hPa | 0 mm | 0.89 m/s, 167° | - | - |
| 1778040652 | 11.67° C | 85% | 1015.6 hPa | 0 mm | 0 m/s | - | - |
| 1778040352 | 11.67° C | 84% | 1015.6 hPa | 0 mm | 0.45 m/s, 188° | - | - |
| 1778040052 | 11.67° C | 84% | 1015.8 hPa | 0 mm | 0.45 m/s, 179° | - | - |
| 1778039752 | 12.22° C | 85% | 1015.7 hPa | 0 mm | 0 m/s | - | - |
| 1778039452 | 12.22° C | 84% | 1015.3 hPa | 0 mm | 0.45 m/s, 161° | - | - |
| 1778039152 | 12.22° C | 83% | 1015.6 hPa | 0 mm | 0.45 m/s, 154° | - | - |
| 1778038852 | 12.78° C | 82% | 1015.4 hPa | 0 mm | 0.45 m/s, 139° | - | - |
| 1778038552 | 12.78° C | 82% | 1015.4 hPa | 0 mm | 0.45 m/s, 125° | - | - |
| 1778038252 | 12.78° C | 82% | 1015.5 hPa | 0 mm | 0.89 m/s, 132° | - | - |
| 1778037952 | 13.33° C | 81% | 1015.5 hPa | 0 mm | 0.45 m/s, 177° | - | - |
* Rain latest hour (hover to see other rain measurements)
** Current wind speed in m/s (hover to see current wind gust speed)